| time (UTC) | temp C | wind direction | speed KPH | gust KPH | rain 1hr cm | rain 24hr cm | rain mn cm | humidity % | barometer mb |
| 20260906104510 | 20 | 37 | 0.0 | 0.0 | 0.00 | 0.00 | 0.00 | 54 | 1014.0 |
| 20260906101510 | 20 | 37 | 0.0 | 0.0 | 0.00 | 0.00 | 0.00 | 53 | 1014.0 |
| 20260906094510 | 20 | 35 | 0.0 | 1.6 | 0.00 | 0.00 | 0.00 | 55 | 1013.9 |
| 20260906093010 | 20 | 360 | 1.6 | 6.4 | 0.00 | 0.00 | 0.00 | 57 | 1014.0 |
| 20260906091510 | 19 | 5 | 0.0 | 0.0 | 0.00 | 0.00 | 0.00 | 59 | 1014.0 |
| 20260906083010 | 19 | 5 | 0.0 | 0.0 | 0.00 | 0.00 | 0.00 | 59 | 1014.3 |
| 20260906081510 | 19 | 5 | 0.0 | 0.0 | 0.00 | 0.00 | 0.00 | 60 | 1014.5 |
| 20260906080013 | 19 | 5 | 0.0 | 0.0 | 0.00 | 0.00 | 0.00 | 60 | 1014.5 |
| 20260906073010 | 20 | 9 | 0.0 | 0.0 | 0.00 | 0.00 | 0.00 | 58 | 1014.8 |
| 20260906071510 | 20 | 9 | 0.0 | 0.0 | 0.00 | 0.00 | 0.00 | 57 | 1014.9 |
| 20260906064510 | 20 | 9 | 0.0 | 0.0 | 0.00 | 0.00 | 0.00 | 56 | 1014.9 |
| 20260906061510 | 20 | 360 | 0.0 | 0.0 | 0.00 | 0.00 | 0.00 | 58 | 1014.9 |
| 20260906060012 | 20 | 17 | 0.0 | 0.0 | 0.00 | 0.00 | 0.00 | 58 | 1014.8 |
| 20260906051511 | 20 | 10 | 1.6 | 4.8 | 0.00 | 0.00 | 0.00 | 58 | 1015.0 |
| 20260906050012 | 20 | 360 | 0.0 | 0.0 | 0.00 | 0.00 | 0.00 | 58 | 1015.1 |
| 20260906044509 | 20 | 360 | 0.0 | 0.0 | 0.00 | 0.00 | 0.00 | 58 | 1015.2 |
| 20260906043010 | 20 | 360 | 0.0 | 0.0 | 0.00 | 0.00 | 0.00 | 56 | 1015.3 |
| 20260906041509 | 20 | 360 | 0.0 | 0.0 | 0.00 | 0.00 | 0.00 | 56 | 1015.2 |
| 20260906040012 | 20 | 268 | 0.0 | 0.0 | 0.00 | 0.00 | 0.00 | 55 | 1015.3 |
| 20260906034508 | 20 | 268 | 0.0 | 0.0 | 0.00 | 0.00 | 0.00 | 55 | 1015.1 |
| 20260906033009 | 21 | 360 | 0.0 | 0.0 | 0.00 | 0.00 | 0.00 | 55 | 1014.8 |
| 20260906031509 | 21 | 360 | 0.0 | 0.0 | 0.00 | 0.00 | 0.00 | 56 | 1014.7 |
| 20260906030012 | 21 | 360 | 0.0 | 0.0 | 0.00 | 0.00 | 0.00 | 55 | 1014.5 |
| 20260906024509 | 21 | 360 | 0.0 | 0.0 | 0.00 | 0.00 | 0.00 | 54 | 1014.4 |
| 20260906023009 | 22 | 360 | 0.0 | 0.0 | 0.00 | 0.00 | 0.00 | 52 | 1014.3 |
| 20260906021511 | 22 | 360 | 0.0 | 0.0 | 0.00 | 0.00 | 0.00 | 50 | 1014.3 |
| 20260906020012 | 23 | 360 | 0.0 | 3.2 | 0.00 | 0.00 | 0.00 | 49 | 1014.3 |
| 20260906014508 | 23 | 360 | 0.0 | 4.8 | 0.00 | 0.00 | 0.00 | 48 | 1014.2 |
| 20260906013009 | 24 | 360 | 1.6 | 8.0 | 0.00 | 0.00 | 0.00 | 46 | 1014.3 |
| 20260906011509 | 25 | 360 | 0.0 | 4.8 | 0.00 | 0.00 | 0.00 | 44 | 1014.4 |
| 20260906010012 | 25 | 254 | 1.6 | 11.3 | 0.00 | 0.00 | 0.00 | 43 | 1014.4 |
| 20260906004509 | 26 | 360 | 3.2 | 16.1 | 0.00 | 0.00 | 0.00 | 41 | 1014.4 |
| 20260906003008 | 26 | 360 | 3.2 | 17.7 | 0.00 | 0.00 | 0.00 | 38 | 1014.2 |
| 20260906001508 | 27 | 360 | 3.2 | 11.3 | 0.00 | 0.00 | 0.00 | 37 | 1014.1 |
| 20260906000012 | 27 | 156 | 3.2 | 16.1 | 0.00 | 0.00 | 0.00 | 38 | 1014.0 |
| 20260905234508 | 28 | 360 | 4.8 | 24.1 | 0.00 | 0.00 | 0.00 | 35 | 1014.1 |
| 20260905233008 | 28 | 360 | 4.8 | 17.7 | 0.00 | 0.00 | 0.00 | 34 | 1014.0 |
| 20260905230013 | 28 | 360 | 4.8 | 16.1 | 0.00 | 0.00 | 0.00 | 34 | 1014.0 |
| 20260905224508 | 28 | 360 | 3.2 | 14.5 | 0.00 | 0.00 | 0.00 | 35 | 1014.0 |
| 20260905223009 | 28 | 360 | 3.2 | 16.1 | 0.00 | 0.00 | 0.00 | 35 | 1014.1 |
| 20260905221508 | 28 | 360 | 4.8 | 12.9 | 0.00 | 0.00 | 0.00 | 36 | 1014.3 |
| 20260905220013 | 28 | 360 | 4.8 | 17.7 | 0.00 | 0.00 | 0.00 | 35 | 1014.4 |
| 20260905214509 | 28 | 360 | 4.8 | 16.1 | 0.00 | 0.00 | 0.00 | 34 | 1014.6 |
| 20260905213009 | 29 | 360 | 3.2 | 12.9 | 0.00 | 0.00 | 0.00 | 34 | 1014.9 |
| 20260905211508 | 28 | 360 | 1.6 | 12.9 | 0.00 | 0.00 | 0.00 | 36 | 1014.9 |
| 20260905210012 | 28 | 360 | 4.8 | 14.5 | 0.00 | 0.00 | 0.00 | 35 | 1015.3 |
| 20260905204508 | 28 | 360 | 3.2 | 17.7 | 0.00 | 0.00 | 0.00 | 35 | 1015.3 |
| 20260905201508 | 28 | 360 | 3.2 | 17.7 | 0.00 | 0.00 | 0.00 | 34 | 1015.7 |
| 20260905200012 | 28 | 360 | 3.2 | 12.9 | 0.00 | 0.00 | 0.00 | 33 | 1015.8 |
| 20260905194508 | 28 | 360 | 1.6 | 12.9 | 0.00 | 0.00 | 0.00 | 34 | 1015.8 |
| 20260905193008 | 28 | 360 | 3.2 | 19.3 | 0.00 | 0.00 | 0.00 | 35 | 1016.0 |
| 20260905191508 | 27 | 360 | 1.6 | 9.7 | 0.00 | 0.00 | 0.00 | 36 | 1016.1 |
| 20260905184508 | 27 | 360 | 0.0 | 14.5 | 0.00 | 0.00 | 0.00 | 36 | 1016.6 |
| 20260905183009 | 26 | 360 | 3.2 | 11.3 | 0.00 | 0.00 | 0.00 | 36 | 1016.7 |
| 20260905181508 | 26 | 254 | 1.6 | 11.3 | 0.00 | 0.00 | 0.00 | 37 | 1016.8 |
| 20260905180011 | 26 | 360 | 1.6 | 11.3 | 0.00 | 0.00 | 0.00 | 37 | 1016.9 |
| 20260905174508 | 26 | 360 | 1.6 | 12.9 | 0.00 | 0.00 | 0.00 | 36 | 1017.0 |
| 20260905173009 | 26 | 360 | 1.6 | 9.7 | 0.00 | 0.00 | 0.00 | 39 | 1016.9 |
| 20260905170011 | 25 | 360 | 1.6 | 8.0 | 0.00 | 0.00 | 0.00 | 38 | 1016.9 |
| 20260905164509 | 24 | 360 | 0.0 | 3.2 | 0.00 | 0.00 | 0.00 | 46 | 1016.8 |
| 20260905163008 | 23 | 360 | 0.0 | 3.2 | 0.00 | 0.00 | 0.00 | 46 | 1016.7 |
| 20260905161509 | 22 | 360 | 1.6 | 8.0 | 0.00 | 0.00 | 0.00 | 50 | 1016.7 |
| 20260905160012 | 21 | 96 | 0.0 | 4.8 | 0.00 | 0.00 | 0.00 | 54 | 1016.7 |
| 20260905154508 | 21 | 78 | 0.0 | 1.6 | 0.00 | 0.00 | 0.00 | 56 | 1016.7 |
| 20260905153008 | 21 | 360 | 0.0 | 1.6 | 0.00 | 0.00 | 0.00 | 59 | 1016.6 |
| 20260905151509 | 20 | 360 | 0.0 | 1.6 | 0.00 | 0.00 | 0.00 | 60 | 1016.6 |
| 20260905144507 | 19 | 78 | 0.0 | 3.2 | 0.00 | 0.00 | 0.00 | 62 | 1016.4 |
| 20260905143007 | 18 | 360 | 0.0 | 3.2 | 0.00 | 0.00 | 0.00 | 67 | 1016.4 |
| 20260905141507 | 18 | 360 | 0.0 | 1.6 | 0.00 | 0.00 | 0.00 | 68 | 1016.2 |
| 20260905140010 | 17 | 360 | 1.6 | 4.8 | 0.00 | 0.00 | 0.00 | 66 | 1016.0 |
| 20260905134507 | 17 | 360 | 3.2 | 8.0 | 0.00 | 0.00 | 0.00 | 67 | 1015.8 |
| 20260905133007 | 17 | 79 | 3.2 | 8.0 | 0.00 | 0.00 | 0.00 | 67 | 1015.6 |
| 20260905130010 | 17 | 360 | 0.0 | 0.0 | 0.00 | 0.00 | 0.00 | 66 | 1015.3 |
| 20260905124507 | 17 | 118 | 0.0 | 0.0 | 0.00 | 0.00 | 0.00 | 66 | 1015.1 |
| 20260905121507 | 17 | 119 | 0.0 | 0.0 | 0.00 | 0.00 | 0.00 | 66 | 1014.9 |
| 20260905120010 | 17 | 360 | 0.0 | 0.0 | 0.00 | 0.00 | 0.00 | 66 | 1014.9 |
| 20260905114507 | 17 | 360 | 0.0 | 0.0 | 0.00 | 0.00 | 0.00 | 65 | 1014.7 |
| 20260905113007 | 17 | 360 | 0.0 | 0.0 | 0.00 | 0.00 | 0.00 | 65 | 1014.7 |
| 20260905111507 | 17 | 360 | 0.0 | 0.0 | 0.00 | 0.00 | 0.00 | 65 | 1014.7 |
| 20260905110010 | 17 | 360 | 0.0 | 0.0 | 0.00 | 0.00 | 0.00 | 65 | 1014.9 |